{"data":{"norad_id":61239,"intl_designator":"2024-174B","name":"2024-174B","alt_names":[],"object_type":"PAYLOAD","status":"ACTIVE","operator":null,"country":"PRC","launch_date":"2024-09-24","launch_site_code":"JSC","launch_vehicle":null,"mission":null,"orbit_class":"UNKNOWN","rcs_meters":null,"size_class":null,"mass_kg":null,"dimensions":null,"purposes":[],"wikipedia_slug":null,"has_3d_model":false,"image_url":null,"decayed_at":null,"tle_current":{"epoch":"2026-09-22T23:14:19.751424Z","epoch_age_seconds":81431,"freshness":"FRESH","line1":"1 61239U 24174B   26265.96828416  .00002295  00000+0  14182-3 0  9990","line2":"2 61239  97.4534 266.7888 0019536 316.2277  43.7403 15.10701979110151","mean_motion":15.10701979,"eccentricity":0.0019536,"inclination_deg":97.4534,"raan_deg":266.7888,"arg_perigee_deg":316.2277,"mean_anomaly_deg":43.7403,"bstar":0.00014182,"rev_number":11015,"period_min":95.319925439775,"perigee_km":520.55424646784,"apogee_km":547.56157442193,"semimajor_km":6912.1949104449,"source":"CELESTRAK","updated_at":"2026-09-23T09:00:20.857027Z"}}}